This is the latest recevied weather packets stored in our database for station/object VE6KEE-13. If no packets are shown the sender has not sent any weather packets the latest 10 day(s).
| Time | Temp. | Humidity | Pressure | Rain* | Wind** | Luminosity | Snow |
|---|---|---|---|---|---|---|---|
| 1778125953 | 10.56° C | 25% | 1011.4 hPa | 0 mm | - | - | - |
| 1778125053 | 10.56° C | 25% | 1011.3 hPa | 0 mm | - | - | - |
| 1778124149 | 11.11° C | 25% | 1010.4 hPa | 0 mm | - | - | - |
| 1778123248 | 11.11° C | 25% | 1010.5 hPa | 0 mm | - | - | - |
| 1778122348 | 11.67° C | 23% | 1010.6 hPa | 0 mm | - | - | - |
| 1778121453 | 11.67° C | 22% | 1010.2 hPa | 0 mm | - | - | - |
| 1778120546 | 12.22° C | 22% | 1009.9 hPa | 0 mm | - | - | - |
| 1778119648 | 13.33° C | 20% | 1010.4 hPa | 0 mm | - | - | - |
| 1778118748 | 13.89° C | 20% | 1009.9 hPa | 0 mm | - | - | - |
| 1778117847 | 14.44° C | 19% | 1009.7 hPa | 0 mm | - | - | - |
| 1778116943 | 15° C | 19% | 1009.7 hPa | 0 mm | - | - | - |
| 1778116047 | 15° C | 19% | 1009.8 hPa | 0 mm | - | - | - |
| 1778115142 | 15.56° C | 19% | 1009.8 hPa | 0 mm | - | - | - |
| 1778114242 | 15.56° C | 18% | 1009.9 hPa | 0 mm | - | - | - |
| 1778113342 | 16.11° C | 18% | 1009.9 hPa | 0 mm | - | - | - |
| 1778112442 | 16.67° C | 18% | 1009.8 hPa | 0 mm | - | - | - |
| 1778111542 | 16.67° C | 18% | 1009.9 hPa | 0 mm | - | - | - |
| 1778110647 | 17.22° C | 17% | 1010 hPa | 0 mm | - | - | - |
| 1778109737 | 17.78° C | 17% | 1010.1 hPa | 0 mm | - | - | - |
| 1778108837 | 17.78° C | 17% | 1010.1 hPa | 0 mm | - | - | - |
| 1778107937 | 18.33° C | 16% | 1010.4 hPa | 0 mm | - | - | - |
| 1778107037 | 18.33° C | 15% | 1010.5 hPa | 0 mm | - | - | - |
| 1778106136 | 18.89° C | 15% | 1010.6 hPa | 0 mm | - | - | - |
| 1778105241 | 19.44° C | 13% | 1010.8 hPa | 0 mm | - | - | - |
| 1778104336 | 21.11° C | 12% | 1010.9 hPa | 0 mm | - | - | - |
* Rain since midnight (hover to see other rain measurements)
** Current wind speed in m/s (hover to see current wind gust speed)